User: anonymous   Login
Location: Unspecified
(0.0000°N, 0.0000°E)
Time: 21:46:21
(UTC+02:00)
Language:

Cosmos 2219 - Orbit

View from above orbital plane
View from above orbital plane
View from above satellite
View from above satellite

Ground track
Ground track

The orbit data is extracted from the following two-line orbital elements,

1 22219U 92076A   16236.78534522 +.00000028 +00000-0 +39724-4 0  9993
2 22219 071.0610 098.9383 0016235 126.0799 234.1830 14.13602158225869
Epoch (UTC): 23 August 2016 18:50:53
Eccentricity: 0.0016235
inclination: 71.0610°
perigee height: 835 km
apogee height: 859 km
right ascension of ascending node: 98.9383°
argument of perigee: 126.0799°
revolutions per day: 14.13602158
mean anomaly at epoch: 234.1830°
orbit number at epoch: 22586

The dashed part of the orbit path shows where the satellite is in the earth's shadow,  

DLR